When you browse on this site, cookies collect data to enhance your experience and personalize the content and advertising you see.
Visit our Privacy Policy to learn more. By continuing to use the site, you agree to this use of cookies and data.
  • In Romania
  • List of Countries
  • For 7 days
  • Water Temperature
  • Satellite Maps
  • Weather Map
  • Weather Widgets
  • user-avatar
    Login

    Hourly Weather Saint-Nazaire

    Today, 25 June, Tuesday

    Time Temperature Precipitation Wind Pressure Humidity
    00:00 +18°C° 0 mm 3 mps 761 mmHg 93%
    01:00 +17°C° 0.3 mm 3 mps 761 mmHg 93%
    02:00 +16°C° 0.3 mm 3 mps 761 mmHg 94%
    03:00 +16°C° 0.3 mm 3 mps 761 mmHg 95%
    04:00 +16°C° 0 mm 3 mps 761 mmHg 94%
    05:00 +17°C° 0 mm 2 mps 761 mmHg 93%
    06:00 +16°C° 0 mm 2 mps 762 mmHg 91%
    07:00 +18°C° 0 mm 2 mps 762 mmHg 87%
    08:00 +20°C° 0 mm 1 mps 762 mmHg 83%
    09:00 +22°C° 0 mm 1 mps 762 mmHg 80%
    10:00 +22°C° 0 mm 1 mps 762 mmHg 77%
    11:00 +23°C° 0 mm 2 mps 763 mmHg 74%
    12:00 +24°C° 0 mm 2 mps 763 mmHg 71%
    13:00 +25°C° 0 mm 2 mps 763 mmHg 70%
    14:00 +25°C° 0 mm 2 mps 763 mmHg 70%
    15:00 +25°C° 0 mm 3 mps 764 mmHg 70%
    16:00 +24°C° 0 mm 2 mps 764 mmHg 74%
    17:00 +24°C° 0 mm 2 mps 764 mmHg 78%
    18:00 +23°C° 0 mm 2 mps 764 mmHg 82%
    19:00 +21°C° 0 mm 2 mps 764 mmHg 85%
    20:00 +21°C° 0 mm 3 mps 764 mmHg 89%
    21:00 +20°C° 0 mm 4 mps 764 mmHg 93%
    22:00 +20°C° 0 mm 4 mps 764 mmHg 93%
    23:00 +19°C° 0 mm 5 mps 764 mmHg 93%

    Tomorrow, 26 June, Wednesday

    Time Temperature Precipitation Wind Pressure Humidity
    00:00 +19°C° 0 mm 5 mps 764 mmHg 93%
    01:00 +19°C° 0.2 mm 6 mps 764 mmHg 93%
    02:00 +20°C° 0.2 mm 7 mps 764 mmHg 94%
    03:00 +20°C° 0.2 mm 7 mps 763 mmHg 95%
    04:00 +20°C° 0.3 mm 7 mps 763 mmHg 94%
    05:00 +21°C° 0.3 mm 7 mps 763 mmHg 93%
    06:00 +21°C° 0.3 mm 6 mps 763 mmHg 93%
    07:00 +23°C° 0 mm 7 mps 763 mmHg 87%
    08:00 +24°C° 0 mm 7 mps 763 mmHg 82%
    09:00 +27°C° 0 mm 8 mps 763 mmHg 76%
    10:00 +28°C° 0 mm 8 mps 763 mmHg 73%
    11:00 +29°C° 0 mm 8 mps 763 mmHg 70%
    12:00 +31°C° 0 mm 9 mps 763 mmHg 68%
    13:00 +32°C° 0 mm 8 mps 762 mmHg 65%
    14:00 +32°C° 0 mm 7 mps 762 mmHg 63%
    15:00 +33°C° 0 mm 7 mps 762 mmHg 60%
    16:00 +33°C° 0 mm 6 mps 762 mmHg 64%
    17:00 +33°C° 0 mm 4 mps 762 mmHg 67%
    18:00 +31°C° 0 mm 3 mps 762 mmHg 70%
    19:00 +30°C° 0 mm 3 mps 762 mmHg 76%
    20:00 +28°C° 0 mm 4 mps 762 mmHg 82%
    21:00 +27°C° 0 mm 4 mps 763 mmHg 87%
    22:00 +26°C° 0 mm 4 mps 763 mmHg 90%
    23:00 +26°C° 0 mm 4 mps 763 mmHg 92%

    Day after tomorrow, 27 June, Thursday

    Time Temperature Precipitation Wind Pressure Humidity
    00:00 +26°C° 0 mm 4 mps 763 mmHg 95%
    01:00 +25°C° 0 mm 4 mps 763 mmHg 95%
    02:00 +25°C° 0 mm 5 mps 763 mmHg 96%
    03:00 +25°C° 0 mm 5 mps 763 mmHg 96%
    04:00 +25°C° 0 mm 5 mps 763 mmHg 95%
    05:00 +24°C° 0 mm 6 mps 763 mmHg 94%
    06:00 +24°C° 0 mm 6 mps 763 mmHg 93%
    07:00 +24°C° 0 mm 6 mps 763 mmHg 90%
    08:00 +26°C° 0 mm 6 mps 763 mmHg 87%
    09:00 +27°C° 0 mm 6 mps 763 mmHg 84%
    10:00 +28°C° 0 mm 6 mps 763 mmHg 77%
    11:00 +30°C° 0 mm 5 mps 763 mmHg 70%
    12:00 +33°C° 0 mm 5 mps 763 mmHg 63%
    13:00 +34°C° 0 mm 5 mps 763 mmHg 61%
    14:00 +35°C° 0 mm 4 mps 762 mmHg 59%
    15:00 +36°C° 0 mm 4 mps 762 mmHg 57%
    16:00 +35°C° 0 mm 4 mps 762 mmHg 60%
    17:00 +35°C° 0 mm 4 mps 761 mmHg 63%
    18:00 +34°C° 0 mm 4 mps 761 mmHg 67%
    19:00 +33°C° 0 mm 5 mps 761 mmHg 72%
    20:00 +32°C° 0 mm 5 mps 761 mmHg 77%
    21:00 +29°C° 0 mm 6 mps 762 mmHg 81%
    22:00 +29°C° 0 mm 6 mps 762 mmHg 84%
    23:00 +28°C° 0 mm 7 mps 761 mmHg 87%

    28 June, Friday

    Time Temperature Precipitation Wind Pressure Humidity
    00:00 +28°C° 0 mm 7 mps 761 mmHg 90%
    01:00 +27°C° 0 mm 6 mps 761 mmHg 92%
    02:00 +26°C° 0 mm 5 mps 761 mmHg 94%
    03:00 +25°C° 0 mm 4 mps 761 mmHg 96%
    04:00 +25°C° 0 mm 5 mps 761 mmHg 93%
    05:00 +25°C° 0 mm 5 mps 761 mmHg 91%
    06:00 +23°C° 0 mm 6 mps 761 mmHg 89%
    07:00 +26°C° 0 mm 6 mps 761 mmHg 85%
    08:00 +27°C° 0 mm 5 mps 761 mmHg 81%
    09:00 +28°C° 0 mm 4 mps 761 mmHg 78%
    10:00 +29°C° 0 mm 4 mps 761 mmHg 74%
    11:00 +32°C° 0 mm 4 mps 761 mmHg 70%
    12:00 +33°C° 0 mm 3 mps 761 mmHg 66%
    13:00 +32°C° 0 mm 4 mps 761 mmHg 66%
    14:00 +32°C° 0 mm 4 mps 761 mmHg 66%
    15:00 +30°C° 0 mm 4 mps 761 mmHg 66%
    16:00 +29°C° 0 mm 3 mps 761 mmHg 69%
    17:00 +28°C° 0 mm 3 mps 761 mmHg 72%
    18:00 +27°C° 0 mm 2 mps 761 mmHg 75%
    19:00 +25°C° 0 mm 2 mps 761 mmHg 79%
    20:00 +24°C° 0 mm 2 mps 761 mmHg 84%
    21:00 +23°C° 0 mm 1 mps 761 mmHg 88%
    22:00 +22°C° 0 mm 1 mps 761 mmHg 89%
    23:00 +22°C° 0 mm 1 mps 761 mmHg 90%

    29 June, Saturday

    Time Temperature Precipitation Wind Pressure Humidity
    00:00 +20°C° 0 mm 0 mps 761 mmHg 91%
    01:00 +22°C° 0 mm 1 mps 761 mmHg 92%
    02:00 +21°C° 0 mm 1 mps 761 mmHg 93%
    03:00 +21°C° 0 mm 1 mps 760 mmHg 93%
    04:00 +22°C° 0 mm 1 mps 760 mmHg 92%
    05:00 +22°C° 0 mm 1 mps 760 mmHg 91%
    06:00 +23°C° 0 mm 1 mps 760 mmHg 89%
    07:00 +24°C° 0 mm 2 mps 760 mmHg 84%
    08:00 +25°C° 0 mm 2 mps 760 mmHg 80%
    09:00 +27°C° 0 mm 2 mps 760 mmHg 75%
    10:00 +27°C° 0 mm 3 mps 760 mmHg 76%
    11:00 +27°C° 0 mm 3 mps 760 mmHg 77%
    12:00 +27°C° 0 mm 3 mps 760 mmHg 77%
    13:00 +27°C° 0 mm 3 mps 760 mmHg 77%
    14:00 +27°C° 0 mm 3 mps 760 mmHg 76%
    15:00 +27°C° 0 mm 3 mps 760 mmHg 75%
    16:00 +26°C° 0 mm 4 mps 760 mmHg 78%
    17:00 +26°C° 0 mm 4 mps 760 mmHg 81%
    18:00 +25°C° 0 mm 5 mps 760 mmHg 83%
    19:00 +25°C° 0 mm 5 mps 760 mmHg 82%
    20:00 +23°C° 0 mm 4 mps 761 mmHg 81%
    21:00 +23°C° 0 mm 4 mps 761 mmHg 79%
    22:00 +21°C° 0 mm 4 mps 761 mmHg 75%
    23:00 +20°C° 0 mm 4 mps 762 mmHg 72%

    30 June, Sunday

    Time Temperature Precipitation Wind Pressure Humidity
    00:00 +19°C° 0 mm 4 mps 762 mmHg 68%
    01:00 +18°C° 0 mm 4 mps 762 mmHg 71%
    02:00 +17°C° 0 mm 3 mps 762 mmHg 74%
    03:00 +14°C° 0 mm 3 mps 762 mmHg 78%
    04:00 +16°C° 0 mm 3 mps 762 mmHg 77%
    05:00 +16°C° 0 mm 2 mps 762 mmHg 75%
    06:00 +16°C° 0 mm 2 mps 763 mmHg 74%
    07:00 +18°C° 0 mm 2 mps 763 mmHg 69%
    08:00 +21°C° 0 mm 1 mps 763 mmHg 64%
    09:00 +22°C° 0 mm 1 mps 763 mmHg 58%
    10:00 +23°C° 0.1 mm 2 mps 763 mmHg 56%
    11:00 +24°C° 0.1 mm 2 mps 763 mmHg 55%
    12:00 +25°C° 0.1 mm 2 mps 763 mmHg 53%
    13:00 +25°C° 0 mm 3 mps 763 mmHg 54%
    14:00 +25°C° 0 mm 3 mps 763 mmHg 54%
    15:00 +25°C° 0 mm 4 mps 763 mmHg 55%
    16:00 +25°C° 0 mm 4 mps 763 mmHg 59%
    17:00 +23°C° 0 mm 4 mps 763 mmHg 63%
    18:00 +23°C° 0 mm 5 mps 763 mmHg 67%
    19:00 +21°C° 0 mm 5 mps 763 mmHg 74%
    20:00 +20°C° 0 mm 5 mps 763 mmHg 81%
    21:00 +19°C° 0 mm 5 mps 763 mmHg 87%
    22:00 +17°C° 0 mm 5 mps 763 mmHg 85%
    23:00 +17°C° 0 mm 6 mps 763 mmHg 83%
    Show more